Regional Weather Roundup
Issued by NWS Kansas City/Pleasant Hill, MO

Home | Current Version | Previous Version | Graphics & Text | Print | Product List | Glossary Off
Versions: 1 2 3 4 5 6 7 8 9 10 11 12 13 14 15 16 17 18 19 20 21 22 23 24 25 26 27

000
ASUS43 KEAX 291810
RWREAX

WEATHER ROUNDUP FOR EASTERN KANSAS AND NORTHWEST MISSOURI
NATIONAL WEATHER SERVICE KANSAS CITY/PLEASANT HILL MO
100 PM CDT FRI APR 29 2016

KSZ040-057-103>105-MOZ028-029-037-043-291900-
...KANSAS CITY METROPOLITAN AREA...

CITY           SKY/WX    TMP DP  RH WIND       PRES   REMARKS
K.C. INTL      CLOUDY    54  46  74 E10       30.01F
6HR MIN TEMP:  47; 6HR MAX TEMP:  54;

K.C. DOWNTOWN  CLOUDY    56  46  69 NE10      30.00F
6HR MIN TEMP:  49; 6HR MAX TEMP:  58;

LEES SUMMIT    CLOUDY    57  47  69 E12       30.00F
6HR MIN TEMP:  49; 6HR MAX TEMP:  57;

OLATHE - IXD   CLOUDY    57  47  69 NE15      29.98F
6HR MIN TEMP:  48; 6HR MAX TEMP:  57;

OLATHE - OJC   CLOUDY    56  47  71 NE12      29.97F
6HR MIN TEMP:  47; 6HR MAX TEMP:  56;

LAWRENCE       CLOUDY    56  46  69 NE14      29.99F

$$

MOZ001>008-011>017-020>025-030>033-038>040-044>046-053-054-291900-
...NORTHERN AND CENTRAL MISSOURI...

CITY           SKY/WX    TMP DP  RH WIND       PRES   REMARKS
ST. JOSEPH     CLOUDY    53  45  74 NE9       30.03R
6HR MIN TEMP:  47; 6HR MAX TEMP:  53;

MOSBY          CLOUDY    54  45  71 E8        30.03S
WARRENSBURG    CLOUDY    61  50  67 NE12      29.99F
WHITEMAN AFB   PTSUNNY   60  51  73 NE12      29.98F
6HR MIN TEMP:  49; 6HR MAX TEMP:  61;

CLINTON        CLOUDY    61  52  72 NE12      29.97F
SEDALIA        CLOUDY    62  51  67 NE9       30.00F
6HR MIN TEMP:  49; 6HR MAX TEMP:  62;

WARSAW         NOT AVBL
CHILLICOTHE      N/A     55  47  74 E9        30.06F
6HR MIN TEMP:  48; 6HR MAX TEMP:  57;

KIRKSVILLE     CLOUDY    53  45  74 E10       30.07F
6HR MIN TEMP:  48; 6HR MAX TEMP:  54;


$$

MOZ041-047>049-056>058-063>065-088>090-097-291900-
...EASTERN AND SOUTHERN MISSOURI...

CITY           SKY/WX    TMP DP  RH WIND       PRES   REMARKS
ST. LOUIS INTL CLOUDY    63  48  59 E9        30.04F
6HR MIN TEMP:  55; 6HR MAX TEMP:  63;

SPIRIT OF STL  CLOUDY    62  51  67 NE8       30.03S
COLUMBIA       PTSUNNY   61  51  70 E8        30.01F
JEFFERSON CITY CLOUDY    59  48  67 NE10      30.00F
ROLLA          CLOUDY    56  50  80 E12       29.97F
OSAGE BEACH    CLOUDY    57  45  62 NE9       29.98F
SPRINGFIELD    CLOUDY    62  53  72 SE16      29.91R
BRANSON        CLOUDY    55  54  94 E17G24    29.91F
JOPLIN         MOSUNNY   67  56  67 E13G21    29.88F
WEST PLAINS    LGT RAIN  55  51  86 E16G30    29.93F

$$

IAZ060-094-KSZ022-034>040-054-083-096-NEZ052-066-093-291900-
...KANSAS...SOUTHEAST NEBRASKA AND IOWA...

CITY           SKY/WX    TMP DP  RH WIND       PRES   REMARKS
TOPEKA         CLOUDY    53  45  74 NE10      29.99F
6HR MIN TEMP:  48; 6HR MAX TEMP:  53;

MANHATTAN      CLOUDY    49  42  77 NE12      29.98F
EMPORIA        CLOUDY    54  46  74 NE12      29.90F
CHANUTE        CLOUDY    63  51  65 NE15      29.88F
WICHITA        LGT RAIN  50  47  89 NE17      29.84F FOG
OMAHA          CLOUDY    48  40  73 NE9       30.08S
LINCOLN        CLOUDY    48  39  71 NE10      30.07F
FALLS CITY     CLOUDY    50  44  80 E12       30.05R
LAMONI         CLOUDY    50  44  80 E9        30.06F
DES MOINES     CLOUDY    50  41  71 NE9       30.08F

$$





USA.gov is the U.S. government's official web portal to all federal, state and local government web resources and services.